Find Pleiades Neo 3

NORAD ID: 48268 Int'l Des: 2021-034 Owner: ADSTI Country: F operational
LEOCIRCULARRETROGRADESSO

リアルタイム位置

3D地球を読み込み中...

Pleiades Neo 3について

説明を読み込み中...

次回通過

Passes for default location (London). Set your location on the main map for personalized predictions.

高度履歴

Loading altitude history...

軌道要素

1 48268U 21034A 26105.92068192 -.00000131 00000-0 -10007-4 0 9998
2 48268 97.8936 181.5813 0001336 93.0286 267.1080 14.81673087268432
Epoch: Apr 15, 2026 • Age: 8 hours

現在のステータス

高度 650.3 km
速度 7.53 km/s
衛星直下点 -67.01°S, 91.92°W
打ち上げ日 Apr 29, 2021
運用期間 4.9 years
タイプ other

技術仕様

分類 Payload
質量 920.00 kg
乾燥質量 895.00 kg
総質量 920.00 kg
長さ 4.00 m
直径 2.00 m
スパン 8.00 m
形状 Hex-cyl+3 panels
製造者 ADST
バスタイプ AstroBus-M Com.
フェーズステータス In Orbit
所有者/国 ADSTI/F

Most Searched